DAL922 CYHZ-KBOS

Flight info

Callsign DAL922
Flight time 1h 8m
Altitude 38000
Route SENVI VIGMA ALLEX AJJAY OOSHN5
Aircraft B738/M-VGDW/C

Departure

Time 2026-05-04 23:33
Airport Halifax / Stanfield International Airport (CYHZ)

Arrival

Time 2026-05-05 00:41
Airport Boston Logan International Airport (KBOS)
Time Latitude Longitude Altitude Speed Heading
2026-05-04 23:09 44.88693 -63.51384 446 ft 0 kts 260°
2026-05-04 23:20 44.88694 -63.51376 447 ft 2 kts 260°
2026-05-04 23:20 44.88696 -63.51356 447 ft 2 kts 260°
2026-05-04 23:20 44.88699 -63.51335 447 ft 2 kts 260°
2026-05-04 23:21 44.88702 -63.51314 447 ft 2 kts 259°
2026-05-04 23:21 44.88705 -63.51293 447 ft 2 kts 242°
2026-05-04 23:21 44.88714 -63.51277 447 ft 2 kts 212°
2026-05-04 23:21 44.88729 -63.51270 447 ft 2 kts 183°
2026-05-04 23:22 44.88742 -63.51272 446 ft 0 kts 163°
2026-05-04 23:22 44.88744 -63.51273 446 ft 0 kts 164°
2026-05-04 23:24 44.88737 -63.51271 446 ft 3 kts 171°
2026-05-04 23:24 44.88697 -63.51248 447 ft 7 kts 125°
2026-05-04 23:24 44.88697 -63.51156 448 ft 11 kts 79°
2026-05-04 23:25 44.88715 -63.51023 448 ft 13 kts 79°
2026-05-04 23:25 44.88741 -63.50912 450 ft 10 kts 46°
2026-05-04 23:25 44.88805 -63.50846 448 ft 12 kts 35°
2026-05-04 23:25 44.88885 -63.50766 444 ft 16 kts 35°
2026-05-04 23:26 44.88963 -63.50689 442 ft 10 kts 35°
2026-05-04 23:26 44.89001 -63.50641 441 ft 6 kts 57°
2026-05-04 23:26 44.89007 -63.50612 440 ft 0 kts 88°
2026-05-04 23:31 44.89007 -63.50608 440 ft 2 kts 93°
2026-05-04 23:31 44.88991 -63.50558 439 ft 9 kts 124°
2026-05-04 23:31 44.88946 -63.50465 441 ft 11 kts 124°
2026-05-04 23:32 44.88883 -63.50439 444 ft 10 kts 206°
2026-05-04 23:32 44.88800 -63.50521 447 ft 33 kts 215°
2026-05-04 23:32 44.88405 -63.50912 455 ft 102 kts 214°
2026-05-04 23:32 44.87669 -63.51630 602 ft 147 kts 218°
2026-05-04 23:33 44.86845 -63.52386 1274 ft 145 kts 216°
2026-05-04 23:33 44.85928 -63.53240 1828 ft 175 kts 219°
2026-05-04 23:33 44.84872 -63.54337 2464 ft 206 kts 218°
2026-05-04 23:33 44.83672 -63.55571 3123 ft 222 kts 217°
2026-05-04 23:34 44.82417 -63.56859 3688 ft 224 kts 217°
2026-05-04 23:34 44.81162 -63.58144 4287 ft 226 kts 217°
2026-05-04 23:34 44.80030 -63.59663 4862 ft 227 kts 235°
2026-05-04 23:34 44.79364 -63.61676 5481 ft 231 kts 243°
2026-05-04 23:35 44.78699 -63.63746 6088 ft 233 kts 242°
2026-05-04 23:35 44.78019 -63.65826 6689 ft 236 kts 241°
2026-05-04 23:35 44.77322 -63.67943 7277 ft 240 kts 241°
2026-05-04 23:35 44.76615 -63.70077 7857 ft 243 kts 240°
2026-05-04 23:36 44.75899 -63.72248 8464 ft 251 kts 240°
2026-05-04 23:36 44.75159 -63.74482 9080 ft 256 kts 240°
2026-05-04 23:36 44.74414 -63.76733 9681 ft 259 kts 239°
2026-05-04 23:36 44.73648 -63.79042 10287 ft 263 kts 239°
2026-05-04 23:37 44.72876 -63.81364 10883 ft 268 kts 239°
2026-05-04 23:37 44.72060 -63.83818 11546 ft 284 kts 239°
2026-05-04 23:37 44.71210 -63.86371 12219 ft 299 kts 239°
2026-05-04 23:37 44.70307 -63.89076 12896 ft 313 kts 239°
2026-05-04 23:38 44.69371 -63.91892 13481 ft 322 kts 239°
2026-05-04 23:38 44.68416 -63.94755 14071 ft 331 kts 240°
2026-05-04 23:38 44.67436 -63.97693 14634 ft 333 kts 240°
2026-05-04 23:38 44.66469 -64.00664 15173 ft 336 kts 242°
2026-05-04 23:39 44.65546 -64.03706 15702 ft 339 kts 242°
2026-05-04 23:39 44.64621 -64.06760 16232 ft 348 kts 242°
2026-05-04 23:39 44.63665 -64.09911 16843 ft 357 kts 243°
2026-05-04 23:39 44.62692 -64.13119 17414 ft 360 kts 243°
2026-05-04 23:40 44.61714 -64.16341 17958 ft 363 kts 243°
2026-05-04 23:40 44.60714 -64.19627 18506 ft 365 kts 243°
2026-05-04 23:40 44.59716 -64.22906 19048 ft 368 kts 243°
2026-05-04 23:40 44.58711 -64.26202 19590 ft 371 kts 243°
2026-05-04 23:41 44.57697 -64.29520 20135 ft 374 kts 243°
2026-05-04 23:41 44.56672 -64.32873 20704 ft 382 kts 243°
2026-05-04 23:41 44.55619 -64.36310 21280 ft 389 kts 243°
2026-05-04 23:41 44.54533 -64.39852 21873 ft 396 kts 244°
2026-05-04 23:42 44.53449 -64.43385 22456 ft 401 kts 244°
2026-05-04 23:42 44.52340 -64.46993 23025 ft 404 kts 244°
2026-05-04 23:42 44.51236 -64.50583 23576 ft 408 kts 244°
2026-05-04 23:42 44.50105 -64.54250 24133 ft 411 kts 244°
2026-05-04 23:43 44.48963 -64.57949 24697 ft 415 kts 244°
2026-05-04 23:43 44.47821 -64.61640 25257 ft 418 kts 244°
2026-05-04 23:43 44.46660 -64.65393 25822 ft 421 kts 243°
2026-05-04 23:43 44.45495 -64.69151 26384 ft 425 kts 244°
2026-05-04 23:44 44.44330 -64.72903 26934 ft 427 kts 244°
2026-05-04 23:44 44.43133 -64.76752 27484 ft 430 kts 244°
2026-05-04 23:44 44.41943 -64.80572 28016 ft 433 kts 244°
2026-05-04 23:44 44.40745 -64.84421 28541 ft 435 kts 243°
2026-05-04 23:45 44.39543 -64.88273 29085 ft 436 kts 243°
2026-05-04 23:45 44.38320 -64.92184 29646 ft 437 kts 243°
2026-05-04 23:45 44.37115 -64.96036 30177 ft 435 kts 243°
2026-05-04 23:45 44.35910 -64.99876 30655 ft 432 kts 243°
2026-05-04 23:46 44.34703 -65.03721 31147 ft 428 kts 242°
2026-05-04 23:46 44.33511 -65.07504 31634 ft 426 kts 242°
2026-05-04 23:46 44.32321 -65.11273 32123 ft 426 kts 242°
2026-05-04 23:46 44.31134 -65.15032 32611 ft 425 kts 242°
2026-05-04 23:47 44.29949 -65.18780 33100 ft 424 kts 242°
2026-05-04 23:47 44.28755 -65.22553 33586 ft 424 kts 242°
2026-05-04 23:47 44.27569 -65.26290 33941 ft 426 kts 242°
2026-05-04 23:47 44.26376 -65.30048 34314 ft 428 kts 242°
2026-05-04 23:48 44.25167 -65.33852 34684 ft 429 kts 242°
2026-05-04 23:48 44.23950 -65.37676 35055 ft 430 kts 242°
2026-05-04 23:48 44.22741 -65.41467 35421 ft 431 kts 242°
2026-05-04 23:48 44.21527 -65.45269 35785 ft 432 kts 242°
2026-05-04 23:49 44.20315 -65.49062 36145 ft 431 kts 242°
2026-05-04 23:49 44.19093 -65.52880 36507 ft 430 kts 242°
2026-05-04 23:49 44.17880 -65.56662 36867 ft 430 kts 242°
2026-05-04 23:49 44.16672 -65.60421 37223 ft 430 kts 242°
2026-05-04 23:50 44.15448 -65.64229 37584 ft 429 kts 242°
2026-05-04 23:50 44.14230 -65.68008 37828 ft 431 kts 242°
2026-05-04 23:50 44.11781 -65.75597 37843 ft 431 kts 242°
2026-05-04 23:51 44.09336 -65.83153 37848 ft 429 kts 242°
2026-05-04 23:51 44.06884 -65.90706 37850 ft 429 kts 242°
2026-05-04 23:52 44.04421 -65.98272 37848 ft 430 kts 242°
2026-05-04 23:52 44.01963 -66.05801 37848 ft 429 kts 242°
2026-05-04 23:53 43.99500 -66.13326 37848 ft 429 kts 242°
2026-05-04 23:53 43.97033 -66.20838 37847 ft 430 kts 242°
2026-05-04 23:54 43.94552 -66.28375 37847 ft 429 kts 242°
2026-05-04 23:54 43.92081 -66.35858 37846 ft 430 kts 242°
2026-05-04 23:55 43.89595 -66.43368 37849 ft 430 kts 242°
2026-05-04 23:56 43.85857 -66.54615 37855 ft 429 kts 242°
2026-05-04 23:56 43.83350 -66.62134 37855 ft 429 kts 242°
2026-05-04 23:57 43.80849 -66.69614 37857 ft 429 kts 241°
2026-05-04 23:57 43.78359 -66.77042 37857 ft 429 kts 241°
2026-05-04 23:58 43.75835 -66.84545 37856 ft 429 kts 241°
2026-05-04 23:58 43.73327 -66.91987 37856 ft 429 kts 241°
2026-05-04 23:59 43.70971 -66.99521 37834 ft 434 kts 250°
2026-05-04 23:59 43.70532 -67.03696 37834 ft 442 kts 263°
2026-05-04 23:59 43.70686 -67.07918 37873 ft 446 kts 268°
2026-05-05 00:00 43.70927 -67.16458 37860 ft 445 kts 265°
2026-05-05 00:00 43.71084 -67.24973 37853 ft 445 kts 264°
2026-05-05 00:01 43.71230 -67.33521 37833 ft 444 kts 264°
2026-05-05 00:01 43.71368 -67.42011 37832 ft 445 kts 265°
2026-05-05 00:02 43.71503 -67.50567 37839 ft 445 kts 264°
2026-05-05 00:02 43.71630 -67.59108 37835 ft 445 kts 264°
2026-05-05 00:03 43.71751 -67.67649 37839 ft 444 kts 264°
2026-05-05 00:03 43.71865 -67.76149 37838 ft 445 kts 264°
2026-05-05 00:04 43.71973 -67.84632 37840 ft 444 kts 264°
2026-05-05 00:04 43.72075 -67.93188 37837 ft 444 kts 264°
2026-05-05 00:05 43.72170 -68.01681 37838 ft 444 kts 264°
2026-05-05 00:05 43.72260 -68.10222 37838 ft 444 kts 264°
2026-05-05 00:06 43.72342 -68.18730 37836 ft 444 kts 264°
2026-05-05 00:06 43.72419 -68.27235 37837 ft 444 kts 264°
2026-05-05 00:07 43.72488 -68.35762 37835 ft 445 kts 264°
2026-05-05 00:07 43.72553 -68.44256 37839 ft 444 kts 264°
2026-05-05 00:08 43.72610 -68.52763 37837 ft 443 kts 264°
2026-05-05 00:08 43.72662 -68.61218 37629 ft 439 kts 264°
2026-05-05 00:08 43.72686 -68.65395 37333 ft 430 kts 263°
2026-05-05 00:09 43.72708 -68.69464 37006 ft 419 kts 263°
2026-05-05 00:09 43.72728 -68.73445 36658 ft 411 kts 263°
2026-05-05 00:09 43.72743 -68.77403 36227 ft 411 kts 263°
2026-05-05 00:09 43.72758 -68.81347 35784 ft 412 kts 263°
2026-05-05 00:10 43.72772 -68.85309 35390 ft 414 kts 263°
2026-05-05 00:10 43.72785 -68.89275 35037 ft 415 kts 263°
2026-05-05 00:10 43.72800 -68.93282 34676 ft 419 kts 262°
2026-05-05 00:10 43.72812 -68.97293 34320 ft 423 kts 262°
2026-05-05 00:11 43.72822 -69.01374 33936 ft 427 kts 262°
2026-05-05 00:11 43.72829 -69.05448 33524 ft 430 kts 262°
2026-05-05 00:11 43.72836 -69.09599 33109 ft 433 kts 261°
2026-05-05 00:11 43.72840 -69.13753 32700 ft 436 kts 261°
2026-05-05 00:12 43.72842 -69.17945 32291 ft 437 kts 261°
2026-05-05 00:12 43.72843 -69.22163 31873 ft 437 kts 261°
2026-05-05 00:12 43.72842 -69.26305 31468 ft 436 kts 262°
2026-05-05 00:12 43.72842 -69.30486 31054 ft 437 kts 262°
2026-05-05 00:13 43.72840 -69.34687 30655 ft 439 kts 262°
2026-05-05 00:13 43.72835 -69.38895 30267 ft 440 kts 262°
2026-05-05 00:13 43.72831 -69.43113 29836 ft 438 kts 262°
2026-05-05 00:13 43.72801 -69.47281 29340 ft 430 kts 258°
2026-05-05 00:14 43.72253 -69.51249 28869 ft 407 kts 244°
2026-05-05 00:14 43.71085 -69.54641 28674 ft 389 kts 231°
2026-05-05 00:14 43.69410 -69.57542 28104 ft 382 kts 222°
2026-05-05 00:14 43.67659 -69.60239 27631 ft 383 kts 222°
2026-05-05 00:15 43.65713 -69.62665 27065 ft 372 kts 210°
2026-05-05 00:15 43.63443 -69.64238 26557 ft 361 kts 199°
2026-05-05 00:15 43.61130 -69.65414 26048 ft 357 kts 197°
2026-05-05 00:15 43.58781 -69.66528 25523 ft 352 kts 196°
2026-05-05 00:16 43.56481 -69.67587 25024 ft 349 kts 196°
2026-05-05 00:16 43.54207 -69.68620 24528 ft 347 kts 195°
2026-05-05 00:16 43.51937 -69.69648 24031 ft 345 kts 195°
2026-05-05 00:16 43.49668 -69.70670 23530 ft 343 kts 195°
2026-05-05 00:17 43.47414 -69.71683 23028 ft 341 kts 196°
2026-05-05 00:17 43.45179 -69.72687 22526 ft 339 kts 196°
2026-05-05 00:17 43.42960 -69.73682 22024 ft 336 kts 196°
2026-05-05 00:17 43.40729 -69.74683 21514 ft 334 kts 196°
2026-05-05 00:18 43.38544 -69.75662 21011 ft 331 kts 196°
2026-05-05 00:18 43.36827 -69.76485 20598 ft 331 kts 201°
2026-05-05 00:18 43.36778 -69.76514 20584 ft 331 kts 201°
2026-05-05 00:18 43.34690 -69.77724 20063 ft 326 kts 193°
2026-05-05 00:19 43.32511 -69.78439 19566 ft 325 kts 199°
2026-05-05 00:19 43.30556 -69.79960 19077 ft 327 kts 211°
2026-05-05 00:19 43.28678 -69.81762 18584 ft 327 kts 211°
2026-05-05 00:19 43.26846 -69.83534 18081 ft 326 kts 213°
2026-05-05 00:20 43.25038 -69.85425 17573 ft 324 kts 213°
2026-05-05 00:20 43.23251 -69.87284 17066 ft 323 kts 213°
2026-05-05 00:20 43.21471 -69.89107 16555 ft 319 kts 210°
2026-05-05 00:20 43.19490 -69.90328 15999 ft 314 kts 193°
2026-05-05 00:21 43.17335 -69.90775 15521 ft 311 kts 188°
2026-05-05 00:21 43.15242 -69.91278 15021 ft 310 kts 191°
2026-05-05 00:21 43.13133 -69.91866 14513 ft 309 kts 192°
2026-05-05 00:21 43.11042 -69.92488 14004 ft 307 kts 192°
2026-05-05 00:22 43.08991 -69.93116 13501 ft 305 kts 192°
2026-05-05 00:22 43.06921 -69.93758 12989 ft 303 kts 192°
2026-05-05 00:22 43.04890 -69.94390 12484 ft 301 kts 192°
2026-05-05 00:22 43.02862 -69.95023 11976 ft 300 kts 192°
2026-05-05 00:23 43.00831 -69.95657 11465 ft 299 kts 193°
2026-05-05 00:23 42.98819 -69.96285 11007 ft 298 kts 193°
2026-05-05 00:23 42.96823 -69.96909 10963 ft 288 kts 193°
2026-05-05 00:23 42.94896 -69.97512 10931 ft 290 kts 193°
2026-05-05 00:24 42.92880 -69.98141 10969 ft 304 kts 192°
2026-05-05 00:24 42.90810 -69.98786 10964 ft 307 kts 192°
2026-05-05 00:24 42.88753 -69.99427 10967 ft 307 kts 192°
2026-05-05 00:24 42.86701 -70.00066 10949 ft 293 kts 192°
2026-05-05 00:25 42.84786 -70.00661 10951 ft 279 kts 192°
2026-05-05 00:25 42.82905 -70.01246 10962 ft 277 kts 192°
2026-05-05 00:25 42.80930 -70.01859 11050 ft 311 kts 192°
2026-05-05 00:25 42.78756 -70.02535 11046 ft 322 kts 192°
2026-05-05 00:26 42.76586 -70.03221 11029 ft 320 kts 195°
2026-05-05 00:26 42.74512 -70.04177 11038 ft 311 kts 198°
2026-05-05 00:26 42.72517 -70.05139 10730 ft 304 kts 199°
2026-05-05 00:26 42.70546 -70.06102 10399 ft 297 kts 199°
2026-05-05 00:27 42.68624 -70.07046 10094 ft 290 kts 199°
2026-05-05 00:27 42.66813 -70.08039 10014 ft 276 kts 208°
2026-05-05 00:27 42.65409 -70.09677 9984 ft 265 kts 229°
2026-05-05 00:27 42.64389 -70.11744 10034 ft 267 kts 235°
2026-05-05 00:28 42.63452 -70.13998 9895 ft 273 kts 238°
2026-05-05 00:28 42.62588 -70.16279 9699 ft 276 kts 240°
2026-05-05 00:28 42.61745 -70.18612 9443 ft 274 kts 240°
2026-05-05 00:28 42.60926 -70.20933 9190 ft 271 kts 241°
2026-05-05 00:29 42.60328 -70.23333 9020 ft 271 kts 257°
2026-05-05 00:29 42.60120 -70.25877 9056 ft 272 kts 260°
2026-05-05 00:29 42.59955 -70.28468 9043 ft 275 kts 261°
2026-05-05 00:29 42.59812 -70.31074 9037 ft 278 kts 262°
2026-05-05 00:30 42.59719 -70.33661 9034 ft 278 kts 263°
2026-05-05 00:30 42.59626 -70.36287 9027 ft 278 kts 263°
2026-05-05 00:30 42.59528 -70.38935 8671 ft 285 kts 263°
2026-05-05 00:30 42.59428 -70.41585 8172 ft 282 kts 263°
2026-05-05 00:31 42.59323 -70.44241 7667 ft 278 kts 263°
2026-05-05 00:31 42.59233 -70.46832 7155 ft 273 kts 263°
2026-05-05 00:31 42.59137 -70.49364 6648 ft 269 kts 263°
2026-05-05 00:31 42.59042 -70.51881 6141 ft 266 kts 262°
2026-05-05 00:32 42.58921 -70.54368 5644 ft 263 kts 262°
2026-05-05 00:32 42.58800 -70.56815 5145 ft 262 kts 262°
2026-05-05 00:32 42.58677 -70.59283 4650 ft 259 kts 263°
2026-05-05 00:32 42.58559 -70.61709 4282 ft 256 kts 263°
2026-05-05 00:33 42.58442 -70.64093 4004 ft 258 kts 262°
2026-05-05 00:33 42.58332 -70.66507 3720 ft 256 kts 262°
2026-05-05 00:33 42.58198 -70.68899 3423 ft 254 kts 262°
2026-05-05 00:33 42.58066 -70.71303 3122 ft 253 kts 261°
2026-05-05 00:34 42.57949 -70.73662 2976 ft 247 kts 262°
2026-05-05 00:34 42.57827 -70.75989 2986 ft 248 kts 262°
2026-05-05 00:34 42.57702 -70.78258 2939 ft 237 kts 262°
2026-05-05 00:34 42.57608 -70.80448 2942 ft 228 kts 262°
2026-05-05 00:35 42.57514 -70.82592 3000 ft 222 kts 261°
2026-05-05 00:35 42.57245 -70.84638 3054 ft 221 kts 245°
2026-05-05 00:35 42.56454 -70.86436 3033 ft 223 kts 234°
2026-05-05 00:35 42.55647 -70.88131 2979 ft 206 kts 234°
2026-05-05 00:36 42.54919 -70.89643 2903 ft 180 kts 234°
2026-05-05 00:36 42.54214 -70.90994 2940 ft 174 kts 230°
2026-05-05 00:36 42.53406 -70.92221 2948 ft 171 kts 213°
2026-05-05 00:36 42.52370 -70.92812 2925 ft 155 kts 199°
2026-05-05 00:37 42.51358 -70.93296 2890 ft 159 kts 199°
2026-05-05 00:37 42.50311 -70.93802 2687 ft 157 kts 199°
2026-05-05 00:37 42.49301 -70.94296 2505 ft 157 kts 199°
2026-05-05 00:37 42.48285 -70.94787 2300 ft 157 kts 199°
2026-05-05 00:38 42.47275 -70.95280 2103 ft 154 kts 199°
2026-05-05 00:38 42.46274 -70.95768 1900 ft 154 kts 200°
2026-05-05 00:38 42.45274 -70.96252 1690 ft 152 kts 200°
2026-05-05 00:38 42.44268 -70.96744 1491 ft 157 kts 199°
2026-05-05 00:39 42.43266 -70.97225 1267 ft 147 kts 198°
2026-05-05 00:39 42.42345 -70.97674 1080 ft 141 kts 198°
2026-05-05 00:39 42.41423 -70.98119 901 ft 142 kts 198°
2026-05-05 00:39 42.40492 -70.98569 699 ft 144 kts 198°
2026-05-05 00:40 42.39575 -70.99016 493 ft 133 kts 197°
2026-05-05 00:40 42.38726 -70.99423 317 ft 131 kts 199°
2026-05-05 00:40 42.37875 -70.99828 150 ft 132 kts 197°
2026-05-05 00:40 42.37014 -71.00256 15 ft 133 kts 199°
2026-05-05 00:41 42.36292 -71.00603 15 ft 65 kts 200°
2026-05-05 00:41 42.36075 -71.00713 15 ft 22 kts 205°
2026-05-05 00:41 42.35974 -71.00821 18 ft 15 kts 229°
2026-05-05 00:41 42.35915 -71.00914 18 ft 10 kts 229°
2026-05-05 00:42 42.35871 -71.00984 18 ft 9 kts 230°
2026-05-05 00:42 42.35837 -71.01062 18 ft 10 kts 256°
2026-05-05 00:42 42.35837 -71.01177 18 ft 15 kts 277°
2026-05-05 00:42 42.35851 -71.01319 21 ft 14 kts 278°
2026-05-05 00:43 42.35867 -71.01446 21 ft 13 kts 281°
2026-05-05 00:43 42.35865 -71.01547 20 ft 10 kts 230°
2026-05-05 00:43 42.35822 -71.01622 19 ft 11 kts 269°
2026-05-05 00:43 42.35835 -71.01723 18 ft 10 kts 281°
2026-05-05 00:44 42.35850 -71.01814 18 ft 9 kts 284°
2026-05-05 00:44 42.35872 -71.01894 18 ft 9 kts 299°
2026-05-05 00:44 42.35907 -71.01975 18 ft 10 kts 300°
2026-05-05 00:44 42.35939 -71.02033 18 ft 9 kts 327°
2026-05-05 00:45 42.36004 -71.02016 18 ft 8 kts 34°
2026-05-05 00:45 42.36018 -71.01967 18 ft 4 kts 98°
2026-05-05 00:45 42.36022 -71.01915 18 ft 5 kts 65°
2026-05-05 00:45 42.36024 -71.01908 18 ft 0 kts 61°
2026-05-05 00:46 42.36025 -71.01907 18 ft 0 kts 61°
2026-05-05 00:46 42.36026 -71.01905 18 ft 0 kts 60°